Skip Page Navigation
NASA JPL Caltech
NASA Logo - Jet Propulsion Laboratory + View the NASA Portal
+ Near-Earth Object (NEO) Program
Search JPL
JPL Home Earth Solar System Stars & Galaxies Technology
JPL Solar System Dynamics
BODIES ORBITS EPHEMERIDES TOOLS PHYSICAL DATA DISCOVERY FAQ SITE MAP
JPL Small-Body Database Browser
Search: [ help ]  
155083 Banneker (2005 SE134)
Classification: Main-belt Asteroid          SPK-ID: 2155083
Ephemeris | Orbit Diagram | Orbital Elements | Physical Parameters | Discovery Circumstances ]

[ hide orbit diagram ]
Orbit Diagram
Note: Make sure you have Java enabled on your browser to see the applet. This applet is provided as a 3D orbit visualization tool. The applet was implemented using 2-body methods, and hence should not be used for determining accurate long-term trajectories (over several years or decades) or planetary encounter circumstances. For accurate long-term ephemerides, please instead use our Horizons system.
Orbit Viewer

Additional Notes: the orbits shown in the applet are color coded. The planets are white lines, and the asteroid/comet is a blue line. The bright white line indicates the portion of the orbit that is above the ecliptic plane, and the darker portion is below the ecliptic plane. Likewise for the asteroid/comet orbit, the light blue indicates the portion above the ecliptic plane, and the dark blue the portion below the ecliptic plane.

Orbit Viewer applet originally written and kindly provided by Osamu Ajiki (AstroArts), and further modified by Ron Baalke (JPL).


Orbital Elements at Epoch 2456400.5 (2013-Apr-18.0) TDB
Reference: MPO226929 (heliocentric ecliptic J2000)
 Element Value Uncertainty (1-sigma)   Units 
e 0.0986579 n/a  
a 2.8995407 n/a AU
q 2.6134781 n/a AU
i 1.43046 n/a deg
node 183.69216 n/a deg
peri 203.76901 n/a deg
M 188.81351 n/a deg
tp 2457258.0495741
(2015-Aug-23.54957410)
n/a JED
period 1803.4007630
4.94
n/a
n/a
d
yr
n 0.19962285 n/a deg/d
Q 3.1856033 n/a AU
  Orbit Determination Parameters
   # obs. used (total)      189  
   first obs. used      2000-??-??  
   last obs. used      2012-03-17  
   # oppositions      8  
   planetary ephem.      DE403  
   condition code      0  
   fit RMS      0.51  
   data source      MPC:mpu  
   producer      MPCLINUX  

Additional Information
 T_jup = 3.280 

Ephemeris | Orbit Diagram | Orbital Elements | Physical Parameters | Discovery Circumstances ]

Physical Parameter Table
Parameter Symbol Value Units Sigma Reference Notes
absolute magnitude H 16.5 mag n/a MPO226929  

155083 Banneker           Discovered 2005 Sept. 30 by L. Molnar at the Calvin-Rehoboth Observatory.
Benjamin Banneker (1731-1806) was a freeborn African-American farmer, clockmaker, writer and scientist. Self-taught in mathematics and astronomy, he wrote six published almanacs that sold throughout the mid-Atlantic region. He assisted in the 1791 survey of the Federal Territory (the District of Columbia).
NOTE: some special characters may not display properly (any characters within {} are an attempt to place the proper accent above a character)
Reference: 20091004/MPCPages.arcLast Updated: 2009-10-06
Ephemeris | Orbit Diagram | Orbital Elements | Physical Parameters | Discovery Circumstances ]
ABOUT SSD CREDITS/AWARDS PRIVACY/COPYRIGHT GLOSSARY LINKS
FirstGov 2013-May-25 19:35 UT
(server date/time)  
NASA Home Page
Site Manager:   Donald K. Yeomans
Webmaster  Alan B. Chamberlin